sat.trackr.live / text

‹ back to catalog

STARLINK-32180

NORAD 60374 · 2024-138V

PAYLOAD ACTIVE UNKNOWN

§ Identity

Operator
Country
US
Launch date
2024-08-04
Launch site
AFWTR
Launch vehicle
Mass (kg)
RCS (m²)

Purposes: comms

External: N2YO · Heavens-Above · Gunter

§ Orbital elements

Epoch: 2026-05-24T21:06:49.370112Z

Period
94.01 min
Inclination
53.1619°
Eccentricity
0.0001443
Mean motion
15.31716380 rev/d
Perigee alt
469.7 km
Apogee alt
471.7 km
Semi-major
6,848.8 km
B*
-4.0104e-5
RAAN
315.6338°
Arg perigee
81.5323°
Mean anomaly
278.5842°
Rev number
10,229

§ Raw data

STARLINK-321801 60374U 24138V   26144.87973808 -.00001610  00000+0 -40104-4 0  99972 60374  53.1619 315.6338 0001443  81.5323 278.5842 15.31716380102295

JSON: /api/v1/satellites/60374 · /tle

For live sub-satellite position, see the globe view (requires WebGL).

§ Visibility from observer

Set your observer location to see the next 7 days of passes ≥ 10°. The values pass through the URL so the page stays shareable.

No JS? Fill the form by hand. The geolocation button needs JavaScript.